Theta_e
290 289 290 290 294 295 295 296 298 298 299 299 300 300 301 301 302 303 305 307 309 311
290 290 291 292 295 294 296 298 297 297 298 298 298 300 301 301 302 303 304 305 307 310
291 292 293 294 294 294 294 295 296 297 298 297 298 299 300 301 301 302 301 302 303 304
290 293 295 294 292 292 292 294 296 297 297 296 296 296 298 299 300 299 299 299 299 301
291 295 291 292 293 293 292 295 296 297 297 295 294 294 295 297 299 298 297 297 296 296
290 291 291 291 295 293 293 295 296 296 295 292 292 292 293 295 297 297 297 297 295 294
289 290 290 291 292 293 295 294 295 295 293 290 290 290 292 294 295 296 297 297 295 294
290 291 291 291 291 292 293 293 295 295 293 288 288 289 288 290 294 292 293 294 295 293
290 292 291 290 291 291 291 290 293 294 292 286 288 288 289 289 291 291 289 290 292 292
290 291 290 290 290 291 290 288 288 290 290 286 284 288 288 288 289 289 287 287 288 289
290 290 291 289 289 289 288 287 287 288 288 287 286 287 287 287 290 288 286 284 285 286
290 289 290 290 288 288 287 287 286 288 287 286 285 287 287 286 287 290 285 284 284 283
291 290 289 289 288 288 288 289 288 288 288 288 285 286 286 285 287 287 287 284 283 285
290 289 289 289 289 288 287 287 286 287 286 287 285 283 285 285 285 283 285 285 283 282
Wind_Speed
6 3 2 3 3 3 3 4 6 6 5 5 5 5 6 5 5 6 4 6 3 4
5 4 3 4 3 2 5 5 6 6 4 4 6 6 6 4 6 6 5 5 4 4
5 6 5 4 5 4 1 5 7 6 4 5 6 7 7 5 6 6 4 4 6 6
3 5 4 4 3 4 3 5 6 6 3 4 7 8 7 6 6 6 6 7 8 9
4 4 6 4 5 3 4 5 5 5 4 6 7 7 8 7 6 7 9 6 10 11
3 4 4 2 4 4 5 5 5 4 5 5 6 7 8 8 7 6 6 7 8 10
3 4 2 3 5 6 6 4 5 4 7 5 5 7 8 8 7 8 8 8 8 10
1 4 3 4 5 6 6 4 4 5 5 5 6 6 7 8 7 7 8 9 8 10
3 4 3 1 5 6 4 6 5 5 5 5 4 8 10 8 4 6 7 6 8 7
1 1 3 0 4 6 3 4 4 5 5 5 4 8 9 10 2 4 4 5 5 5
3 1 5 4 4 1 3 2 2 2 5 3 4 9 11 11 3 4 5 5 5 6
5 2 3 3 4 2 2 3 2 2 3 3 3 8 10 9 4 4 4 4 5 6
5 4 4 3 3 2 1 3 1 1 3 6 2 5 8 7 4 4 2 2 3 8
7 6 5 4 3 3 3 2 3 4 3 5 6 3 3 6 3 2 1 3 2 3
Wind_Direction
36 30 357 23 29 311 316 324 306 312 320 8 347 327 319 323 307 298 282 273 252 269
9 3 357 6 355 333 9 338 335 334 12 2 345 324 328 302 331 323 337 332 323 282
25 1 343 33 14 65 21 318 7 355 13 360 347 346 344 341 352 351 349 348 1 11
4 349 355 70 22 22 347 3 0 353 357 18 3 355 349 357 7 1 16 359 20 15
40 28 34 35 348 325 355 12 340 349 27 46 11 356 357 351 15 11 26 4 40 23
83 49 45 25 324 313 350 0 345 354 71 51 20 2 354 353 17 21 15 33 56 43
152 116 58 350 350 341 326 336 360 357 99 58 38 10 1 360 20 17 18 35 37 48
89 142 103 17 342 320 323 13 40 20 70 71 44 20 360 353 32 26 17 25 28 51
331 136 134 26 328 331 29 13 17 36 86 51 50 13 15 13 16 38 29 21 18 39
141 87 152 80 311 318 39 33 16 23 90 59 26 17 15 356 15 83 56 34 25 31
176 259 174 207 282 354 49 34 4 49 64 75 22 10 9 356 25 105 78 53 34 31
171 191 282 239 154 98 40 328 319 147 118 100 4 6 18 360 341 124 97 71 56 41
172 185 243 273 170 171 190 295 283 350 171 138 148 12 16 23 27 76 147 151 74 43
178 192 218 237 200 183 203 303 300 285 260 179 168 170 71 28 45 31 347 133 59 20